When you browse on this site, cookies collect data to enhance your experience and personalize the content and advertising you see.
Visit our Privacy Policy to learn more. By continuing to use the site, you agree to this use of cookies and data.
  • In Latvia
  • List of Countries
  • For 7 days
  • Water Temperature
  • Satellite Maps
  • Weather Map
  • Weather Widgets
  • user-avatar
    Login

    Hourly Weather Lubango

    Today, 25 March, Monday

    Time Temperature Precipitation Wind Pressure Humidity
    00:00 +19°C° 0 mm 1 mps 608 mmHg 71%
    01:00 +19°C° 0 mm 1 mps 608 mmHg 71%
    02:00 +19°C° 0 mm 1 mps 608 mmHg 70%
    03:00 +19°C° 0 mm 1 mps 608 mmHg 69%
    04:00 +19°C° 0 mm 1 mps 608 mmHg 67%
    05:00 +19°C° 0 mm 1 mps 608 mmHg 66%
    06:00 +19°C° 0 mm 1 mps 608 mmHg 65%
    07:00 +20°C° 0 mm 1 mps 608 mmHg 64%
    08:00 +21°C° 0 mm 2 mps 609 mmHg 56%
    09:00 +24°C° 0 mm 2 mps 611 mmHg 49%
    10:00 +27°C° 0 mm 2 mps 612 mmHg 41%
    11:00 +27°C° 0 mm 2 mps 611 mmHg 41%
    12:00 +27°C° 0 mm 2 mps 611 mmHg 41%
    13:00 +28°C° 0 mm 2 mps 610 mmHg 41%
    14:00 +26°C° 0 mm 1 mps 609 mmHg 46%
    15:00 +25°C° 0 mm 1 mps 608 mmHg 51%
    16:00 +23°C° 0 mm 1 mps 607 mmHg 57%
    17:00 +22°C° 0 mm 1 mps 607 mmHg 62%
    18:00 +21°C° 0 mm 1 mps 607 mmHg 66%
    19:00 +20°C° 0 mm 1 mps 607 mmHg 71%
    20:00 +19°C° 0 mm 1 mps 607 mmHg 75%
    21:00 +18°C° 0 mm 1 mps 607 mmHg 80%
    22:00 +18°C° 0 mm 1 mps 608 mmHg 84%
    23:00 +18°C° 0.1 mm 1 mps 608 mmHg 84%

    Tomorrow, 26 March, Tuesday

    Time Temperature Precipitation Wind Pressure Humidity
    00:00 +16°C° 0.1 mm 1 mps 608 mmHg 83%
    01:00 +16°C° 0.1 mm 1 mps 608 mmHg 83%
    02:00 +16°C° 0.1 mm 1 mps 607 mmHg 82%
    03:00 +16°C° 0.1 mm 1 mps 607 mmHg 82%
    04:00 +16°C° 0.1 mm 1 mps 607 mmHg 81%
    05:00 +15°C° 0 mm 0 mps 607 mmHg 79%
    06:00 +16°C° 0 mm 0 mps 608 mmHg 77%
    07:00 +17°C° 0 mm 0 mps 608 mmHg 75%
    08:00 +21°C° 0 mm 1 mps 609 mmHg 65%
    09:00 +24°C° 0 mm 1 mps 611 mmHg 55%
    10:00 +27°C° 0 mm 1 mps 612 mmHg 46%
    11:00 +26°C° 0.4 mm 1 mps 611 mmHg 48%
    12:00 +26°C° 0.4 mm 1 mps 610 mmHg 50%
    13:00 +26°C° 0.4 mm 1 mps 610 mmHg 52%
    14:00 +25°C° 1 mm 1 mps 609 mmHg 56%
    15:00 +24°C° 1 mm 1 mps 608 mmHg 59%
    16:00 +23°C° 1 mm 1 mps 608 mmHg 62%
    17:00 +22°C° 1.6 mm 1 mps 608 mmHg 70%
    18:00 +20°C° 1.6 mm 1 mps 608 mmHg 77%
    19:00 +17°C° 1.6 mm 0 mps 608 mmHg 84%
    20:00 +19°C° 2.7 mm 1 mps 608 mmHg 86%
    21:00 +18°C° 2.7 mm 1 mps 609 mmHg 88%
    22:00 +18°C° 2.7 mm 1 mps 610 mmHg 91%
    23:00 +18°C° 1.2 mm 1 mps 610 mmHg 90%

    Day after tomorrow, 27 March, Wednesday

    Time Temperature Precipitation Wind Pressure Humidity
    00:00 +18°C° 1.2 mm 1 mps 609 mmHg 89%
    01:00 +16°C° 1.2 mm 0 mps 609 mmHg 89%
    02:00 +16°C° 0.3 mm 0 mps 609 mmHg 87%
    03:00 +16°C° 0.3 mm 0 mps 608 mmHg 86%
    04:00 +16°C° 0.3 mm 0 mps 608 mmHg 84%
    05:00 +16°C° 0 mm 0 mps 608 mmHg 84%
    06:00 +16°C° 0 mm 0 mps 609 mmHg 83%
    07:00 +18°C° 0 mm 1 mps 609 mmHg 83%
    08:00 +21°C° 0 mm 1 mps 610 mmHg 73%
    09:00 +23°C° 0 mm 1 mps 612 mmHg 63%
    10:00 +25°C° 0 mm 1 mps 613 mmHg 53%
    11:00 +26°C° 0 mm 1 mps 612 mmHg 50%
    12:00 +27°C° 0 mm 1 mps 612 mmHg 46%
    13:00 +28°C° 0 mm 2 mps 612 mmHg 42%
    14:00 +26°C° 0.1 mm 1 mps 611 mmHg 47%
    15:00 +25°C° 0.1 mm 1 mps 610 mmHg 52%
    16:00 +22°C° 0.1 mm 0 mps 609 mmHg 57%
    17:00 +21°C° 0.1 mm 0 mps 609 mmHg 60%
    18:00 +20°C° 0.1 mm 0 mps 609 mmHg 62%
    19:00 +19°C° 0.1 mm 0 mps 610 mmHg 65%
    20:00 +18°C° 0.4 mm 0 mps 610 mmHg 70%
    21:00 +19°C° 0.4 mm 1 mps 610 mmHg 75%
    22:00 +18°C° 0.4 mm 1 mps 610 mmHg 80%
    23:00 +18°C° 0.4 mm 1 mps 610 mmHg 80%

    28 March, Thursday

    Time Temperature Precipitation Wind Pressure Humidity
    00:00 +18°C° 0.4 mm 1 mps 610 mmHg 80%
    01:00 +18°C° 0.4 mm 1 mps 609 mmHg 80%
    02:00 +18°C° 0.2 mm 1 mps 609 mmHg 80%
    03:00 +18°C° 0.2 mm 1 mps 609 mmHg 81%
    04:00 +16°C° 0.2 mm 1 mps 608 mmHg 81%
    05:00 +18°C° 0.2 mm 1 mps 609 mmHg 80%
    06:00 +18°C° 0.2 mm 1 mps 609 mmHg 80%
    07:00 +17°C° 0.2 mm 2 mps 610 mmHg 79%
    08:00 +20°C° 0.4 mm 2 mps 611 mmHg 70%
    09:00 +22°C° 0.4 mm 3 mps 611 mmHg 61%
    10:00 +25°C° 0.4 mm 4 mps 612 mmHg 53%
    11:00 +26°C° 0.8 mm 4 mps 612 mmHg 51%
    12:00 +27°C° 0.8 mm 3 mps 611 mmHg 49%
    13:00 +28°C° 0.8 mm 3 mps 611 mmHg 47%
    14:00 +27°C° 1 mm 3 mps 610 mmHg 48%
    15:00 +27°C° 1 mm 2 mps 610 mmHg 49%
    16:00 +27°C° 1 mm 2 mps 609 mmHg 50%
    17:00 +25°C° 0.2 mm 1 mps 609 mmHg 54%
    18:00 +23°C° 0.2 mm 1 mps 609 mmHg 59%
    19:00 +22°C° 0.2 mm 1 mps 609 mmHg 63%
    20:00 +21°C° 1.5 mm 1 mps 609 mmHg 68%
    21:00 +20°C° 1.5 mm 1 mps 609 mmHg 72%
    22:00 +19°C° 1.5 mm 1 mps 610 mmHg 77%
    23:00 +19°C° 0.5 mm 1 mps 609 mmHg 79%

    29 March, Friday

    Time Temperature Precipitation Wind Pressure Humidity
    00:00 +18°C° 0.5 mm 1 mps 609 mmHg 80%
    01:00 +18°C° 0.5 mm 1 mps 608 mmHg 82%
    02:00 +18°C° 0 mm 1 mps 608 mmHg 82%
    03:00 +16°C° 0 mm 1 mps 608 mmHg 83%
    04:00 +16°C° 0 mm 1 mps 608 mmHg 83%
    05:00 +18°C° 0 mm 1 mps 608 mmHg 82%
    06:00 +18°C° 0 mm 1 mps 608 mmHg 81%
    07:00 +18°C° 0 mm 1 mps 609 mmHg 79%
    08:00 +20°C° 0 mm 2 mps 610 mmHg 69%
    09:00 +22°C° 0 mm 3 mps 611 mmHg 58%
    10:00 +26°C° 0 mm 5 mps 612 mmHg 47%
    11:00 +27°C° 0 mm 4 mps 611 mmHg 45%
    12:00 +27°C° 0 mm 4 mps 611 mmHg 43%
    13:00 +28°C° 0 mm 3 mps 610 mmHg 40%
    14:00 +28°C° 0 mm 3 mps 610 mmHg 42%
    15:00 +27°C° 0 mm 3 mps 609 mmHg 44%
    16:00 +27°C° 0 mm 2 mps 609 mmHg 46%
    17:00 +25°C° 0 mm 2 mps 608 mmHg 51%
    18:00 +23°C° 0 mm 1 mps 608 mmHg 55%
    19:00 +21°C° 0 mm 1 mps 608 mmHg 60%
    20:00 +20°C° 0.3 mm 1 mps 608 mmHg 65%
    21:00 +19°C° 0.3 mm 1 mps 608 mmHg 71%
    22:00 +19°C° 0.3 mm 1 mps 608 mmHg 77%
    23:00 +18°C° 1.9 mm 1 mps 608 mmHg 80%

    30 March, Saturday

    Time Temperature Precipitation Wind Pressure Humidity
    00:00 +18°C° 1.9 mm 1 mps 608 mmHg 84%
    01:00 +18°C° 1.9 mm 1 mps 608 mmHg 88%
    02:00 +18°C° 0.6 mm 1 mps 608 mmHg 86%
    03:00 +18°C° 0.6 mm 1 mps 608 mmHg 84%
    04:00 +16°C° 0.6 mm 0 mps 608 mmHg 82%
    05:00 +16°C° 0 mm 0 mps 608 mmHg 82%
    06:00 +17°C° 0 mm 0 mps 608 mmHg 82%
    07:00 +17°C° 0 mm 0 mps 609 mmHg 81%
    08:00 +21°C° 0 mm 1 mps 610 mmHg 73%
    09:00 +23°C° 0 mm 1 mps 610 mmHg 65%
    10:00 +25°C° 0 mm 1 mps 611 mmHg 57%
    11:00 +25°C° 0.1 mm 2 mps 611 mmHg 54%
    12:00 +26°C° 0.1 mm 2 mps 611 mmHg 50%
    13:00 +27°C° 0.1 mm 3 mps 610 mmHg 47%
    14:00 +26°C° 0.4 mm 2 mps 610 mmHg 51%
    15:00 +25°C° 0.4 mm 1 mps 609 mmHg 55%
    16:00 +24°C° 0.4 mm 1 mps 608 mmHg 60%
    17:00 +23°C° 0.3 mm 1 mps 608 mmHg 65%
    18:00 +19°C° 0.3 mm 0 mps 608 mmHg 70%
    19:00 +18°C° 0.3 mm 0 mps 608 mmHg 75%
    20:00 +18°C° 0.7 mm 0 mps 608 mmHg 77%
    21:00 +19°C° 0.7 mm 1 mps 608 mmHg 79%
    22:00 +19°C° 0.7 mm 1 mps 608 mmHg 82%
    23:00 +19°C° 0.2 mm 1 mps 608 mmHg 82%
    Show more